Location: Crescent
(42.8242°N, 73.7329°W)
Time: 20:48:16
(UTC+00:00)

BlueWalker 3 - Visible Passes

Search period start: 19 January 2026 00:00
Search period end: 29 January 2026 00:00
Orbit: 451 x 463 km, 53.2° (Epoch: 19 January)

Date Brightness Start Highest point End Pass type
(mag) Time Alt. Az. Time Alt. Az. Time Alt. Az.
19 Jan 3.3 23:11:33 10° S 23:14:11 20° SE 23:14:25 19° SE visible
20 Jan 5.0 00:47:52 10° WSW 00:48:12 12° WSW 00:48:12 12° WSW visible
20 Jan 3.7 22:36:49 10° SSE 22:38:54 15° SE 22:40:53 10° E visible
21 Jan 3.3 00:12:26 10° WSW 00:14:39 35° WSW 00:14:39 35° WSW visible
21 Jan 1.6 23:37:02 10° SW 23:40:36 89° SE 23:41:01 68° NE visible
22 Jan 1.7 23:01:40 10° SW 23:05:12 68° SE 23:07:17 23° ENE visible
23 Jan 4.6 00:39:57 10° WNW 00:41:02 16° WNW 00:41:02 16° WNW visible
23 Jan 2.1 22:26:22 10° SW 22:29:49 51° SE 22:33:17 10° ENE visible
24 Jan 3.3 00:04:19 10° W 00:07:14 28° NNW 00:07:14 28° NNW visible
24 Jan 3.0 23:28:40 10° W 23:31:57 33° NNW 23:33:21 24° NNE visible
25 Jan 2.7 22:53:03 10° W 22:56:26 40° NNW 22:59:25 13° NE visible
26 Jan 4.6 00:32:17 10° NW 00:33:09 13° NW 00:33:09 13° NW visible
26 Jan 3.9 23:56:33 10° WNW 23:59:04 18° NNW 23:59:09 18° N visible
27 Jan 3.8 23:20:48 10° WNW 23:23:27 19° NNW 23:25:08 14° NNE visible
28 Jan 3.6 22:45:02 10° WNW 22:47:51 21° NNW 22:50:38 10° NE visible
